Powrót do katalogu

STARLINK-5297

AktywnyŁącznośćVLEO
NORAD 54158·PAYLOAD·🇺🇸 United States

Wystrzelony Oct 28, 2022 z Vandenberg Space Force Base

Loading…

Następne Przeloty (najbliższe 24 godziny)

TLE

ŚwieżeSource: CelesTrak SupGP

Epoka: Sep 14, 2026, 21:25 UTC

1 54158C 22141B   26257.89284722  .00734210  00000+0  27695-1 0  2570
2 54158  53.1601 243.5047 0001246  86.8186 122.2925 15.26145366    19

Śledź STARLINK-5297 w czasie rzeczywistym z AllMySat

Download on the App Store